Auburn, ME

9:42 AM EST on February 28, 2017 (GMT -0500)
Auburn-Lewiston Municipal

Weather History for KLEW - February, 2013

Change the Weather History Date:

Monday, February 4, 2013

  Actual Average Record
Temperature  
Mean Temperature 20 °F -  
Max Temperature 26 °F 29 °F 51 °F (2016)
Min Temperature 14 °F 10 °F -9 °F (2011)
Degree Days  
Heating Degree Days 45    
Moisture  
Dew Point 3 °F    
Average Humidity 47    
Maximum Humidity 68    
Minimum Humidity 26    
Precipitation  
Precipitation 0.00 in - - ()
Sea Level Pressure  
Sea Level Pressure 29.68 in    
Wind  
Wind Speed 8 mph (NW)    
Max Wind Speed 18 mph    
Max Gust Speed 29 mph    
Visibility 10 miles    
Events      
Averages and records for this station are not official NWS values.
T = Trace of Precipitation, MM = Missing Value Source: NWS Daily Summary

Daily Weather History Graph

Daily Weather History Graph

Search for Another Location

Airport or City:

Trip Planner

Search our weather history database for the weather conditions in past years. The results will help you decide how hot, cold, wet, or windy it might be!

Date:

Astronomy

Feb. 04, 2013 Rise Set
Actual Time 6:54 AM EST 4:55 PM EST
Civil Twilight 6:24 AM EST 5:26 PM EST
Nautical Twilight 5:50 AM EST 6:00 PM EST
Astronomical Twilight 5:16 AM EST 6:34 PM EST
Moon 1:29 AM EST (2/4) 11:13 AM EST (2/4)
Length of Visible Light 11h 01m
Length of Day
10h 01m
Last Quarter, 37% of the Moon is Illuminated
Feb 4
Last Quarter
Feb 10
New
Feb 17
First Quarter
Feb 25
Full
Mar 4
Last Quarter

Hourly Weather History & Observations

Time (EST) Temp. Windchill Dew Point Humidity Pressure Visibility Wind Dir Wind Speed Gust Speed Precip Events Conditions
12:15 AM 21.2 °F 10.9 °F 10.4 °F 63% 29.67 in 10.0 mi North 9.2 mph - N/A   Overcast
12:35 AM 21.2 °F 11.7 °F 10.4 °F 63% 29.67 in 10.0 mi North 8.1 mph - N/A   Overcast
12:55 AM 21.2 °F 11.7 °F 10.4 °F 63% 29.67 in 10.0 mi North 8.1 mph - N/A   Overcast
1:15 AM 21.2 °F 12.6 °F 10.4 °F 63% 29.66 in 10.0 mi NNW 6.9 mph - N/A   Overcast
1:35 AM 21.2 °F 11.7 °F 10.4 °F 63% 29.66 in 10.0 mi NNW 8.1 mph - N/A   Overcast
1:55 AM 21.2 °F 12.6 °F 8.6 °F 58% 29.67 in 10.0 mi NNW 6.9 mph - N/A   Overcast
2:15 AM 19.4 °F 12.8 °F 8.6 °F 63% 29.66 in 10.0 mi NNW 4.6 mph - N/A   Mostly Cloudy
2:35 AM 19.4 °F 12.8 °F 10.4 °F 68% 29.65 in 10.0 mi NNW 4.6 mph - N/A   Mostly Cloudy
2:55 AM 19.4 °F 14.3 °F 10.4 °F 68% 29.65 in 10.0 mi NW 3.5 mph - N/A   Overcast
3:15 AM 19.4 °F - 10.4 °F 68% 29.65 in 10.0 mi Calm Calm - N/A   Overcast
3:35 AM 19.4 °F - 10.4 °F 68% 29.65 in 10.0 mi Calm Calm - N/A   Overcast
3:55 AM 19.4 °F 14.3 °F 10.4 °F 68% 29.64 in 10.0 mi West 3.5 mph - N/A   Overcast
4:15 AM 19.4 °F 14.3 °F 10.4 °F 68% 29.64 in 10.0 mi WNW 3.5 mph - N/A   Overcast
5:55 AM 19.4 °F 14.3 °F 8.6 °F 63% 29.64 in 10.0 mi WNW 3.5 mph - N/A   Partly Cloudy
6:15 AM 17.6 °F 12.3 °F 8.6 °F 68% 29.64 in 10.0 mi WNW 3.5 mph - N/A   Clear
6:35 AM 17.6 °F 12.3 °F 8.6 °F 68% 29.64 in 10.0 mi WNW 3.5 mph - N/A   Clear
6:55 AM 17.6 °F 12.3 °F 8.6 °F 68% 29.64 in 10.0 mi NW 3.5 mph - N/A   Clear
7:15 AM 17.6 °F 12.3 °F 8.6 °F 68% 29.64 in 10.0 mi WNW 3.5 mph - N/A   Clear
7:35 AM 17.6 °F 12.3 °F 8.6 °F 68% 29.65 in 10.0 mi NW 3.5 mph - N/A   Clear
7:55 AM 19.4 °F 9.5 °F 10.4 °F 68% 29.66 in 10.0 mi NW 8.1 mph - N/A   Clear
8:16 AM 19.4 °F 8.6 °F 10.4 °F 68% 29.65 in 10.0 mi NW 9.2 mph - N/A   Clear
8:35 AM 21.2 °F 10.1 °F 10.4 °F 63% 29.65 in 10.0 mi NW 10.4 mph - N/A   Clear
8:55 AM 23.0 °F 11.1 °F 8.6 °F 54% 29.65 in 10.0 mi NW 12.7 mph 20.7 mph N/A   Clear
9:15 AM 24.8 °F 12.9 °F 8.6 °F 50% 29.65 in 10.0 mi WNW 13.8 mph 19.6 mph N/A   Clear
9:35 AM 24.8 °F 12.9 °F 8.6 °F 50% 29.65 in 10.0 mi WNW 13.8 mph 20.7 mph N/A   Partly Cloudy
9:55 AM 24.8 °F 12.4 °F 6.8 °F 46% 29.65 in 10.0 mi WNW 15.0 mph 24.2 mph N/A   Mostly Cloudy
10:15 AM 24.8 °F 12.9 °F 5.0 °F 43% 29.65 in 10.0 mi NW 13.8 mph 23.0 mph N/A   Mostly Cloudy
10:35 AM 24.8 °F 11.9 °F 5.0 °F 43% 29.66 in 10.0 mi NW 16.1 mph 26.5 mph N/A   Mostly Cloudy
10:56 AM 24.8 °F 15.3 °F 6.8 °F 46% 29.66 in 10.0 mi WNW 9.2 mph 19.6 mph N/A   Mostly Cloudy
11:15 AM 24.8 °F 11.1 °F 5.0 °F 43% 29.65 in 10.0 mi NW 18.4 mph 25.3 mph N/A   Scattered Clouds
11:35 AM 26.6 °F 15.2 °F 3.2 °F 37% 29.65 in 10.0 mi NW 13.8 mph 17.3 mph N/A   Mostly Cloudy
11:55 AM 26.6 °F 13.8 °F 1.4 °F 34% 29.64 in 10.0 mi NW 17.3 mph 27.6 mph N/A   Scattered Clouds
12:15 PM 24.8 °F 11.5 °F -0.4 °F 34% 29.64 in 10.0 mi NW 17.3 mph 28.8 mph N/A   Mostly Cloudy
12:35 PM 24.8 °F 14.6 °F 3.2 °F 40% 29.63 in 10.0 mi WNW 10.4 mph 18.4 mph N/A   Overcast
12:55 PM 24.8 °F 11.9 °F 1.4 °F 36% 29.63 in 10.0 mi NW 16.1 mph - N/A   Scattered Clouds
1:15 PM 24.8 °F 13.4 °F 1.4 °F 36% 29.63 in 10.0 mi WNW 12.7 mph 21.9 mph N/A   Mostly Cloudy
1:36 PM 24.8 °F 13.4 °F -0.4 °F 34% 29.64 in 10.0 mi NW 12.7 mph 19.6 mph N/A   Overcast
1:55 PM 26.6 °F 15.7 °F 3.2 °F 37% 29.63 in 10.0 mi NW 12.7 mph - N/A   Overcast
2:15 PM 26.6 °F 13.8 °F 1.4 °F 34% 29.64 in 10.0 mi West 17.3 mph 27.6 mph N/A   Mostly Cloudy
2:35 PM 26.6 °F 13.8 °F -0.4 °F 31% 29.64 in 10.0 mi West 17.3 mph 25.3 mph N/A   Scattered Clouds
2:55 PM 26.6 °F 14.7 °F -0.4 °F 31% 29.65 in 10.0 mi West 15.0 mph 26.5 mph N/A   Overcast
3:16 PM 24.8 °F 13.4 °F -0.4 °F 34% 29.66 in 10.0 mi WNW 12.7 mph 23.0 mph N/A   Scattered Clouds
3:35 PM 24.8 °F 13.4 °F -0.4 °F 34% 29.65 in 10.0 mi WNW 12.7 mph 18.4 mph N/A   Clear
3:55 PM 26.6 °F 15.7 °F -2.2 °F 29% 29.66 in 10.0 mi WNW 12.7 mph - N/A   Scattered Clouds
4:15 PM 24.8 °F 14.0 °F -2.2 °F 31% 29.66 in 10.0 mi WNW 11.5 mph 20.7 mph N/A   Scattered Clouds
4:35 PM 24.8 °F 11.9 °F -4.0 °F 28% 29.67 in 10.0 mi West 16.1 mph 21.9 mph N/A   Partly Cloudy
4:55 PM 24.8 °F 16.1 °F -5.8 °F 26% 29.67 in 10.0 mi WNW 8.1 mph 17.3 mph N/A   Clear
5:15 PM 23.0 °F 12.4 °F -5.8 °F 28% 29.68 in 10.0 mi WNW 10.4 mph 16.1 mph N/A   Clear
5:35 PM 23.0 °F 13.1 °F -4.0 °F 31% 29.68 in 10.0 mi WNW 9.2 mph 19.6 mph N/A   Clear
6:15 PM 21.2 °F 9.5 °F -4.0 °F 33% 29.70 in 10.0 mi WNW 11.5 mph 16.1 mph N/A   Clear
6:35 PM 21.2 °F 11.7 °F -4.0 °F 33% 29.71 in 10.0 mi WNW 8.1 mph 18.4 mph N/A   Clear
7:15 PM 21.2 °F 7.8 °F -5.8 °F 30% 29.72 in 10.0 mi WNW 15.0 mph 20.7 mph N/A   Clear
7:35 PM 19.4 °F 10.4 °F -4.0 °F 36% 29.73 in 10.0 mi NW 6.9 mph - N/A   Clear
7:55 PM 19.4 °F 7.9 °F -0.4 °F 42% 29.74 in 10.0 mi NW 10.4 mph 18.4 mph N/A   Clear
8:15 PM 19.4 °F 7.9 °F -2.2 °F 39% 29.75 in 10.0 mi NW 10.4 mph - N/A   Clear
8:55 PM 17.6 °F 6.4 °F -2.2 °F 42% 29.78 in 10.0 mi NNW 9.2 mph - N/A   Clear
9:15 PM 17.6 °F 10.7 °F -2.2 °F 42% 29.78 in 10.0 mi NW 4.6 mph - N/A   Clear
9:35 PM 17.6 °F 9.3 °F -4.0 °F 38% 29.79 in 10.0 mi WNW 5.8 mph - N/A   Clear
9:55 PM 15.8 °F 5.1 °F -4.0 °F 41% 29.80 in 10.0 mi NW 8.1 mph - N/A   Clear
10:15 PM 15.8 °F 8.6 °F -5.8 °F 38% 29.80 in 10.0 mi NW 4.6 mph - N/A   Clear
10:35 PM 15.8 °F 10.2 °F -5.8 °F 38% 29.81 in 10.0 mi NW 3.5 mph - N/A   Clear
10:55 PM 15.8 °F 10.2 °F -5.8 °F 38% 29.81 in 10.0 mi WNW 3.5 mph - N/A   Clear
11:15 PM 14.0 °F - -5.8 °F 41% 29.82 in 10.0 mi Calm Calm - N/A   Clear
11:35 PM 14.0 °F 5.1 °F -2.2 °F 49% 29.83 in 10.0 mi WSW 5.8 mph - N/A   Clear
11:55 PM 14.0 °F 6.5 °F -4.0 °F 45% 29.83 in 10.0 mi West 4.6 mph - N/A   Clear